Weather History for Liberia, Costa Rica

Change the Weather History Date:

Monday, May 6, 2013

  Actual Average Record
Temperature  
Mean Temperature 84 °F -  
Max Temperature 94 °F 89 °F 99 °F (2014)
Min Temperature 73 °F 76 °F 70 °F (2014)
Cooling Degree Days 18    
Growing Degree Days 34 (Base 50)    
Moisture  
Dew Point 68 °F    
Average Humidity 55    
Maximum Humidity 79    
Minimum Humidity 26    
Precipitation  
Precipitation 0.00 in - - ()
Sea Level Pressure  
Sea Level Pressure 29.91 in    
Wind  
Wind Speed 4 mph ()    
Max Wind Speed 17 mph    
Max Gust Speed -    
Visibility 8.3 miles    
Events      
Averages and records for this station are not official NWS values.
T = Trace of Precipitation, MM = Missing Value Source: Averaged Metar Reports

Daily Weather History Graph

Daily Weather History Graph

Search for Another Location

Airport:

Trip Planner

Search our weather history database for the weather conditions in past years. The results will help you decide how hot, cold, wet, or windy it might be!

Date:

Astronomy

May. 06, 2013 Rise Set
Actual Time 5:22 AM CST 5:55 PM CST
Civil Twilight 5:00 AM CST 6:17 PM CST
Nautical Twilight 4:34 AM CST 6:43 PM CST
Astronomical Twilight 4:08 AM CST 7:09 PM CST
Moon 2:50 AM CST (5/6) 3:22 PM CST (5/6)
Length of Visible Light 13h 16m
Length of Day
12h 32m
Waning Crescent, 10% of the Moon is Illuminated
May 6
Waning Crescent
May 9
New
May 17
First Quarter
May 24
Full
May 31
Last Quarter

Hourly Weather History & Observations

Time (CST) Temp. Heat Index Dew Point Humidity Pressure Visibility Wind Dir Wind Speed Gust Speed Precip Events Conditions
6:00 AM 75 °F - 68 °F 73% 29.98 in 12 mi Calm Calm - -   Overcast
6:00 AM 75.2 °F - 68.0 °F 78% 29.96 in - Calm Calm - N/A   Clear
7:00 AM 75.2 °F - 66.2 °F 73% 29.97 in - NNE 3.5 mph - N/A   Clear
8:00 AM 82.4 °F 85.4 °F 68.0 °F 62% 29.97 in - NNE 4.6 mph - N/A   Clear
9:00 AM 85 °F - 69 °F 51% 29.99 in 12 mi SSE 3.5 mph - -   Scattered Clouds
9:00 AM 84.2 °F 88.4 °F 69.8 °F 62% 29.97 in 6.2 mi SSE 3.5 mph - N/A   Mostly Cloudy
10:00 AM 87.8 °F 91.4 °F 68.0 °F 52% 29.95 in 6.2 mi West 2.3 mph - N/A   Mostly Cloudy
11:00 AM 89.6 °F 90.1 °F 62.6 °F 40% 29.94 in 6.2 mi SSW 3.5 mph - N/A   Scattered Clouds
12:00 PM 93 °F - 62 °F 26% 29.93 in 12 mi WSW 3.5 mph - -   Partly Cloudy
12:00 PM 93.2 °F 94.1 °F 62.6 °F 36% 29.92 in 6.2 mi WSW 3.5 mph - N/A   Scattered Clouds
1:00 PM 93.2 °F 96.2 °F 66.2 °F 41% 29.88 in 6.2 mi West 12.7 mph - N/A   Scattered Clouds
2:00 PM 91.4 °F 95.4 °F 68.0 °F 46% 29.85 in 6.2 mi West 17.3 mph - N/A   Scattered Clouds
3:00 PM 89 °F - 69 °F 42% 29.86 in 12 mi West 15.0 mph - -   Scattered Clouds
3:00 PM 89.6 °F 93.4 °F 68.0 °F 49% 29.84 in 6.2 mi West 15.0 mph - N/A   Scattered Clouds
4:00 PM 89.6 °F 93.4 °F 68.0 °F 49% 29.83 in 6.2 mi West 13.8 mph - N/A   Scattered Clouds
5:00 PM 86.0 °F 89.4 °F 68.0 °F 55% 29.84 in 6.2 mi West 9.2 mph - N/A   Partly Cloudy
6:00 PM 84 °F - 70 °F 55% 29.87 in 12 mi NW 4.6 mph - -  
6:00 PM 84.2 °F 88.4 °F 69.8 °F 62% 29.86 in - NW 4.6 mph - N/A   Clear
7:00 PM 80.6 °F 85.4 °F 73.4 °F 79% 29.89 in - NNW 4.6 mph - N/A   Clear
8:00 PM 80.6 °F 85.4 °F 73.4 °F 79% 29.91 in - Calm Calm - N/A   Clear